Location: Unspecified
(0.0000°N, 0.0000°E)
Time: 13:14:57
(UTC+00:00)

Explorer 11/Cluster Stage 4 - Pass Details

Date: 20 September 2019
Orbit: 467 x 1259 km, 28.8° (Epoch: 13 October)

Event Time Altitude Azimuth Distance (km) Brightness Sun altitude
Rises 19:15:43 0° 256° (WSW) 4,147 11.7 -20.6°
Reaches altitude 10° 19:19:00 10° 264° (W) 3,117 10.8 -21.4°
Maximum altitude 19:26:01 37° 328° (NNW) 1,616 8.4 -23.1°
Enters shadow 19:30:27 18° 25° (NNE) 2,214 8.6 -24.2°
